• In Österreich
  • Länderverzeichnis
  • Für 7 Tage
  • Wassertemperatur
  • Satellitenkarten
  • Wetterkarte
  • News
  • Widgets
  • user-avatar
    Anmelden

    Stündliche Wetter Tusla

    Heute, 21 Oktober, Samstag

    Zeit Temperatur Niederschläge Wind Luftdruck Luftfeuchtigkeit
    00:00 +13°C° 0 mm 1 m/S 724 mmHg 75%
    01:00 +13°C° 0 mm 2 m/S 724 mmHg 77%
    02:00 +12°C° 0 mm 1 m/S 724 mmHg 78%
    03:00 +12°C° 0 mm 1 m/S 724 mmHg 79%
    04:00 +12°C° 0 mm 1 m/S 724 mmHg 81%
    05:00 +12°C° 0 mm 1 m/S 724 mmHg 80%
    06:00 +12°C° 0 mm 1 m/S 724 mmHg 78%
    07:00 +12°C° 0 mm 1 m/S 724 mmHg 77%
    08:00 +15°C° 0 mm 1 m/S 724 mmHg 66%
    09:00 +19°C° 0 mm 1 m/S 724 mmHg 55%
    10:00 +22°C° 0 mm 1 m/S 725 mmHg 44%
    11:00 +23°C° 0 mm 1 m/S 724 mmHg 40%
    12:00 +24°C° 0 mm 1 m/S 724 mmHg 36%
    13:00 +24°C° 0 mm 1 m/S 724 mmHg 32%
    14:00 +23°C° 0 mm 1 m/S 723 mmHg 37%
    15:00 +22°C° 0 mm 1 m/S 723 mmHg 42%
    16:00 +21°C° 0 mm 1 m/S 723 mmHg 47%
    17:00 +19°C° 0 mm 1 m/S 723 mmHg 53%
    18:00 +16°C° 0 mm 1 m/S 723 mmHg 58%
    19:00 +13°C° 0 mm 0 m/S 723 mmHg 64%
    20:00 +14°C° 0 mm 1 m/S 723 mmHg 66%
    21:00 +13°C° 0 mm 1 m/S 723 mmHg 68%
    22:00 +13°C° 0 mm 1 m/S 723 mmHg 69%
    23:00 +13°C° 0 mm 1 m/S 723 mmHg 71%

    Morgen, 22 Oktober, Sonntag

    Zeit Temperatur Niederschläge Wind Luftdruck Luftfeuchtigkeit
    00:00 +12°C° 0 mm 1 m/S 722 mmHg 73%
    01:00 +12°C° 0 mm 1 m/S 722 mmHg 75%
    02:00 +12°C° 0 mm 1 m/S 722 mmHg 76%
    03:00 +12°C° 0 mm 1 m/S 722 mmHg 77%
    04:00 +11°C° 0 mm 1 m/S 722 mmHg 79%
    05:00 +11°C° 0 mm 1 m/S 722 mmHg 78%
    06:00 +12°C° 0 mm 1 m/S 722 mmHg 78%
    07:00 +12°C° 0 mm 1 m/S 722 mmHg 78%
    08:00 +15°C° 0 mm 1 m/S 722 mmHg 69%
    09:00 +18°C° 0 mm 1 m/S 722 mmHg 60%
    10:00 +21°C° 0 mm 1 m/S 722 mmHg 51%
    11:00 +22°C° 0 mm 1 m/S 721 mmHg 48%
    12:00 +22°C° 0 mm 1 m/S 721 mmHg 46%
    13:00 +23°C° 0 mm 1 m/S 720 mmHg 44%
    14:00 +22°C° 0,1 mm 1 m/S 720 mmHg 49%
    15:00 +21°C° 0,1 mm 1 m/S 719 mmHg 55%
    16:00 +20°C° 0,1 mm 1 m/S 719 mmHg 61%
    17:00 +19°C° 0,4 mm 1 m/S 718 mmHg 67%
    18:00 +16°C° 0,4 mm 1 m/S 718 mmHg 74%
    19:00 +15°C° 0,4 mm 1 m/S 718 mmHg 80%
    20:00 +15°C° 1,3 mm 1 m/S 717 mmHg 84%
    21:00 +15°C° 1,3 mm 1 m/S 717 mmHg 88%
    22:00 +14°C° 1,3 mm 1 m/S 717 mmHg 92%
    23:00 +14°C° 1,4 mm 1 m/S 717 mmHg 93%

    übermorgen, 23 Oktober, Montag

    Zeit Temperatur Niederschläge Wind Luftdruck Luftfeuchtigkeit
    00:00 +13°C° 1,4 mm 1 m/S 716 mmHg 94%
    01:00 +13°C° 1,4 mm 2 m/S 716 mmHg 95%
    02:00 +12°C° 2,8 mm 2 m/S 715 mmHg 95%
    03:00 +10°C° 2,8 mm 3 m/S 715 mmHg 94%
    04:00 +8°C° 2,8 mm 4 m/S 714 mmHg 94%
    05:00 +8°C° 1 mm 4 m/S 714 mmHg 94%
    06:00 +8°C° 1 mm 3 m/S 714 mmHg 93%
    07:00 +7°C° 1 mm 3 m/S 714 mmHg 92%
    08:00 +7°C° 0,8 mm 3 m/S 715 mmHg 92%
    09:00 +7°C° 0,8 mm 3 m/S 715 mmHg 91%
    10:00 +7°C° 0,8 mm 4 m/S 715 mmHg 90%
    11:00 +6°C° 0,9 mm 4 m/S 715 mmHg 89%
    12:00 +6°C° 0,9 mm 4 m/S 715 mmHg 89%
    13:00 +6°C° 0,9 mm 5 m/S 715 mmHg 88%
    14:00 +6°C° 0,7 mm 4 m/S 715 mmHg 88%
    15:00 +6°C° 0,7 mm 4 m/S 715 mmHg 89%
    16:00 +6°C° 0,7 mm 4 m/S 716 mmHg 90%
    17:00 +5°C° 0,6 mm 4 m/S 716 mmHg 90%
    18:00 +5°C° 0,6 mm 4 m/S 716 mmHg 91%
    19:00 +5°C° 0,6 mm 4 m/S 716 mmHg 92%
    20:00 +5°C° 0,9 mm 3 m/S 716 mmHg 92%
    21:00 +5°C° 0,9 mm 3 m/S 716 mmHg 93%
    22:00 +5°C° 0,9 mm 3 m/S 717 mmHg 93%
    23:00 +5°C° 0,9 mm 3 m/S 717 mmHg 93%

    24 Oktober, Dienstag

    Zeit Temperatur Niederschläge Wind Luftdruck Luftfeuchtigkeit
    00:00 +5°C° 0,9 mm 4 m/S 717 mmHg 94%
    01:00 +5°C° 0,9 mm 4 m/S 717 mmHg 94%
    02:00 +5°C° 1,2 mm 4 m/S 717 mmHg 95%
    03:00 +5°C° 1,2 mm 4 m/S 717 mmHg 95%
    04:00 +5°C° 1,2 mm 4 m/S 717 mmHg 95%
    05:00 +5°C° 1,3 mm 4 m/S 717 mmHg 95%
    06:00 +5°C° 1,3 mm 4 m/S 717 mmHg 94%
    07:00 +5°C° 1,3 mm 4 m/S 717 mmHg 94%
    08:00 +6°C° 1,1 mm 4 m/S 717 mmHg 94%
    09:00 +6°C° 1,1 mm 4 m/S 718 mmHg 93%
    10:00 +6°C° 1,1 mm 4 m/S 718 mmHg 93%
    11:00 +6°C° 1,3 mm 4 m/S 718 mmHg 93%
    12:00 +6°C° 1,3 mm 4 m/S 718 mmHg 93%
    13:00 +6°C° 1,3 mm 5 m/S 718 mmHg 93%
    14:00 +6°C° 1,3 mm 5 m/S 718 mmHg 94%
    15:00 +6°C° 1,3 mm 5 m/S 718 mmHg 94%
    16:00 +6°C° 1,3 mm 5 m/S 719 mmHg 94%
    17:00 +7°C° 1 mm 4 m/S 719 mmHg 94%
    18:00 +7°C° 1 mm 4 m/S 720 mmHg 94%
    19:00 +7°C° 1 mm 4 m/S 720 mmHg 94%
    20:00 +7°C° 0,7 mm 4 m/S 721 mmHg 94%
    21:00 +7°C° 0,7 mm 5 m/S 721 mmHg 93%
    22:00 +7°C° 0,7 mm 5 m/S 722 mmHg 93%
    23:00 +6°C° 0,3 mm 4 m/S 722 mmHg 93%

    25 Oktober, Mittwoch

    Zeit Temperatur Niederschläge Wind Luftdruck Luftfeuchtigkeit
    00:00 +6°C° 0,3 mm 4 m/S 722 mmHg 93%
    01:00 +5°C° 0,3 mm 4 m/S 722 mmHg 93%
    02:00 +5°C° 0,1 mm 4 m/S 723 mmHg 93%
    03:00 +5°C° 0,1 mm 3 m/S 723 mmHg 93%
    04:00 +4°C° 0,1 mm 3 m/S 723 mmHg 93%
    05:00 +4°C° 0,1 mm 3 m/S 723 mmHg 92%
    06:00 +4°C° 0,1 mm 3 m/S 724 mmHg 92%
    07:00 +4°C° 0,1 mm 3 m/S 724 mmHg 92%
    08:00 +4°C° 0 mm 3 m/S 725 mmHg 89%
    09:00 +5°C° 0 mm 3 m/S 725 mmHg 86%
    10:00 +5°C° 0 mm 3 m/S 725 mmHg 83%
    11:00 +7°C° 0 mm 3 m/S 725 mmHg 80%
    12:00 +7°C° 0 mm 3 m/S 725 mmHg 77%
    13:00 +7°C° 0 mm 4 m/S 725 mmHg 74%
    14:00 +8°C° 0 mm 3 m/S 725 mmHg 74%
    15:00 +7°C° 0 mm 3 m/S 725 mmHg 74%
    16:00 +7°C° 0 mm 3 m/S 725 mmHg 73%
    17:00 +5°C° 0 mm 3 m/S 726 mmHg 75%
    18:00 +5°C° 0 mm 3 m/S 726 mmHg 77%
    19:00 +4°C° 0 mm 3 m/S 726 mmHg 79%
    20:00 +4°C° 0 mm 3 m/S 727 mmHg 79%
    21:00 +4°C° 0 mm 3 m/S 727 mmHg 78%
    22:00 +3°C° 0 mm 3 m/S 727 mmHg 78%
    23:00 +3°C° 0,1 mm 3 m/S 727 mmHg 79%

    26 Oktober, Donnerstag

    Zeit Temperatur Niederschläge Wind Luftdruck Luftfeuchtigkeit
    00:00 +3°C° 0,1 mm 3 m/S 727 mmHg 80%
    01:00 +2°C° 0,1 mm 3 m/S 727 mmHg 81%
    02:00 +2°C° 0 mm 3 m/S 728 mmHg 82%
    03:00 +3°C° 0 mm 2 m/S 728 mmHg 82%
    04:00 +2°C° 0 mm 2 m/S 728 mmHg 83%
    05:00 +2°C° 0 mm 2 m/S 728 mmHg 83%
    06:00 +2°C° 0 mm 2 m/S 729 mmHg 84%
    07:00 +2°C° 0 mm 2 m/S 729 mmHg 84%
    08:00 +3°C° 0 mm 2 m/S 729 mmHg 79%
    09:00 +4°C° 0 mm 2 m/S 730 mmHg 73%
    10:00 +5°C° 0 mm 2 m/S 730 mmHg 67%
    11:00 +6°C° 0 mm 2 m/S 730 mmHg 65%
    12:00 +7°C° 0 mm 3 m/S 730 mmHg 62%
    13:00 +8°C° 0 mm 3 m/S 730 mmHg 59%
    14:00 +7°C° 0 mm 2 m/S 730 mmHg 62%
    15:00 +7°C° 0 mm 2 m/S 730 mmHg 64%
    16:00 +6°C° 0 mm 2 m/S 730 mmHg 67%
    17:00 +6°C° 0 mm 1 m/S 731 mmHg 71%
    18:00 +5°C° 0 mm 1 m/S 731 mmHg 75%
    19:00 +4°C° 0 mm 1 m/S 731 mmHg 80%
    20:00 +3°C° 0 mm 1 m/S 731 mmHg 80%
    21:00 +3°C° 0 mm 1 m/S 732 mmHg 81%
    22:00 +3°C° 0 mm 1 m/S 732 mmHg 81%
    23:00 +3°C° 0 mm 1 m/S 732 mmHg 81%
    Mehr zeigen